• Em Portugal
  • Lista de países
  • Para 7 dias
  • Temperatura da água
  • Mapas de satélite
  • Mapa do tempo
  • Widgets de tempo
  • user-avatar
    Iniciar Sessão

    Previsão horária em Bujumbura

    Hoje, 21 Setembro, Quinta-feira

    Tempo Temperatura Precipitação Vento Pressão Humidade
    00:00 +25°C° 0,3 mm 1 m/s 692 mmHg 79%
    01:00 +25°C° 0,3 mm 1 m/s 692 mmHg 79%
    02:00 +25°C° 0,3 mm 1 m/s 692 mmHg 78%
    03:00 +25°C° 0,1 mm 1 m/s 692 mmHg 78%
    04:00 +25°C° 0,1 mm 1 m/s 692 mmHg 78%
    05:00 +22°C° 0,1 mm 0 m/s 692 mmHg 79%
    06:00 +25°C° 0,1 mm 1 m/s 692 mmHg 76%
    07:00 +26°C° 0,1 mm 1 m/s 693 mmHg 73%
    08:00 +27°C° 0,1 mm 2 m/s 693 mmHg 70%
    09:00 +27°C° 0,2 mm 2 m/s 693 mmHg 68%
    10:00 +28°C° 0,2 mm 2 m/s 693 mmHg 65%
    11:00 +29°C° 0,2 mm 2 m/s 693 mmHg 63%
    12:00 +30°C° 0,1 mm 2 m/s 692 mmHg 59%
    13:00 +31°C° 0,1 mm 2 m/s 692 mmHg 55%
    14:00 +32°C° 0,1 mm 2 m/s 691 mmHg 51%
    15:00 +31°C° 0,2 mm 2 m/s 690 mmHg 52%
    16:00 +31°C° 0,2 mm 2 m/s 690 mmHg 54%
    17:00 +30°C° 0,2 mm 1 m/s 690 mmHg 55%
    18:00 +29°C° 0,1 mm 1 m/s 690 mmHg 59%
    19:00 +27°C° 0,1 mm 1 m/s 691 mmHg 64%
    20:00 +24°C° 0,1 mm 0 m/s 691 mmHg 68%
    21:00 +23°C° 0 mm 0 m/s 691 mmHg 69%
    22:00 +25°C° 0 mm 1 m/s 692 mmHg 71%
    23:00 +25°C° 0 mm 1 m/s 692 mmHg 72%

    Amanhã, 22 Setembro, Sexta-feira

    Tempo Temperatura Precipitação Vento Pressão Humidade
    00:00 +24°C° 0 mm 1 m/s 691 mmHg 72%
    01:00 +24°C° 0 mm 1 m/s 691 mmHg 73%
    02:00 +24°C° 0 mm 1 m/s 690 mmHg 74%
    03:00 +23°C° 0 mm 1 m/s 690 mmHg 74%
    04:00 +23°C° 0 mm 1 m/s 691 mmHg 74%
    05:00 +23°C° 0 mm 1 m/s 691 mmHg 74%
    06:00 +24°C° 0 mm 1 m/s 692 mmHg 66%
    07:00 +26°C° 0 mm 2 m/s 693 mmHg 58%
    08:00 +28°C° 0 mm 2 m/s 693 mmHg 50%
    09:00 +29°C° 0 mm 2 m/s 693 mmHg 44%
    10:00 +31°C° 0 mm 2 m/s 694 mmHg 38%
    11:00 +34°C° 0 mm 2 m/s 694 mmHg 31%
    12:00 +35°C° 0 mm 2 m/s 692 mmHg 30%
    13:00 +35°C° 0 mm 2 m/s 691 mmHg 29%
    14:00 +36°C° 0 mm 2 m/s 690 mmHg 28%
    15:00 +35°C° 0 mm 2 m/s 690 mmHg 31%
    16:00 +34°C° 0 mm 2 m/s 689 mmHg 33%
    17:00 +32°C° 0 mm 1 m/s 689 mmHg 36%
    18:00 +30°C° 0 mm 1 m/s 689 mmHg 39%
    19:00 +28°C° 0 mm 1 m/s 690 mmHg 42%
    20:00 +27°C° 0 mm 1 m/s 691 mmHg 46%
    21:00 +26°C° 0 mm 1 m/s 691 mmHg 48%
    22:00 +26°C° 0 mm 1 m/s 691 mmHg 49%
    23:00 +25°C° 0 mm 1 m/s 692 mmHg 51%

    Depois de amanhã, 23 Setembro, Sábado

    Tempo Temperatura Precipitação Vento Pressão Humidade
    00:00 +25°C° 0 mm 1 m/s 691 mmHg 52%
    01:00 +25°C° 0 mm 1 m/s 691 mmHg 53%
    02:00 +24°C° 0 mm 1 m/s 690 mmHg 54%
    03:00 +24°C° 0 mm 1 m/s 690 mmHg 55%
    04:00 +24°C° 0 mm 1 m/s 690 mmHg 55%
    05:00 +24°C° 0 mm 1 m/s 690 mmHg 56%
    06:00 +26°C° 0 mm 1 m/s 691 mmHg 50%
    07:00 +28°C° 0 mm 1 m/s 692 mmHg 45%
    08:00 +29°C° 0 mm 1 m/s 693 mmHg 39%
    09:00 +31°C° 0 mm 1 m/s 693 mmHg 36%
    10:00 +34°C° 0 mm 2 m/s 693 mmHg 32%
    11:00 +36°C° 0 mm 2 m/s 693 mmHg 29%
    12:00 +36°C° 0 mm 2 m/s 692 mmHg 28%
    13:00 +36°C° 0 mm 2 m/s 691 mmHg 28%
    14:00 +36°C° 0 mm 2 m/s 690 mmHg 28%
    15:00 +35°C° 0 mm 2 m/s 690 mmHg 31%
    16:00 +33°C° 0 mm 1 m/s 690 mmHg 34%
    17:00 +32°C° 0 mm 1 m/s 689 mmHg 37%
    18:00 +30°C° 0 mm 1 m/s 690 mmHg 39%
    19:00 +29°C° 0 mm 1 m/s 691 mmHg 42%
    20:00 +28°C° 0 mm 1 m/s 691 mmHg 45%
    21:00 +27°C° 0 mm 1 m/s 692 mmHg 47%
    22:00 +27°C° 0 mm 1 m/s 692 mmHg 48%
    23:00 +26°C° 0 mm 1 m/s 692 mmHg 50%

    24 Setembro, Domingo

    Tempo Temperatura Precipitação Vento Pressão Humidade
    00:00 +26°C° 0 mm 1 m/s 691 mmHg 51%
    01:00 +25°C° 0 mm 1 m/s 691 mmHg 51%
    02:00 +25°C° 0 mm 1 m/s 690 mmHg 51%
    03:00 +25°C° 0 mm 1 m/s 690 mmHg 52%
    04:00 +25°C° 0 mm 1 m/s 691 mmHg 52%
    05:00 +24°C° 0 mm 1 m/s 691 mmHg 53%
    06:00 +26°C° 0 mm 1 m/s 692 mmHg 49%
    07:00 +27°C° 0 mm 1 m/s 692 mmHg 46%
    08:00 +29°C° 0 mm 1 m/s 693 mmHg 42%
    09:00 +30°C° 0 mm 1 m/s 693 mmHg 40%
    10:00 +31°C° 0 mm 2 m/s 693 mmHg 38%
    11:00 +34°C° 0 mm 2 m/s 693 mmHg 35%
    12:00 +34°C° 0 mm 2 m/s 692 mmHg 36%
    13:00 +34°C° 0 mm 2 m/s 691 mmHg 36%
    14:00 +34°C° 0 mm 2 m/s 690 mmHg 37%
    15:00 +32°C° 0 mm 2 m/s 690 mmHg 40%
    16:00 +31°C° 0 mm 1 m/s 690 mmHg 43%
    17:00 +30°C° 0 mm 1 m/s 690 mmHg 46%
    18:00 +29°C° 0 mm 1 m/s 690 mmHg 49%
    19:00 +28°C° 0 mm 1 m/s 691 mmHg 53%
    20:00 +25°C° 0 mm 0 m/s 691 mmHg 56%
    21:00 +24°C° 0,2 mm 0 m/s 691 mmHg 58%
    22:00 +24°C° 0,2 mm 0 m/s 691 mmHg 59%
    23:00 +26°C° 0,2 mm 1 m/s 692 mmHg 61%

    25 Setembro, Segunda-feira

    Tempo Temperatura Precipitação Vento Pressão Humidade
    00:00 +25°C° 0,2 mm 1 m/s 691 mmHg 62%
    01:00 +25°C° 0,2 mm 1 m/s 691 mmHg 63%
    02:00 +25°C° 0,2 mm 1 m/s 690 mmHg 64%
    03:00 +25°C° 0,1 mm 1 m/s 690 mmHg 64%
    04:00 +25°C° 0,1 mm 1 m/s 691 mmHg 65%
    05:00 +25°C° 0,1 mm 1 m/s 691 mmHg 65%
    06:00 +26°C° 0,1 mm 1 m/s 691 mmHg 64%
    07:00 +26°C° 0,1 mm 1 m/s 692 mmHg 63%
    08:00 +27°C° 0,1 mm 2 m/s 692 mmHg 62%
    09:00 +28°C° 0,1 mm 2 m/s 692 mmHg 59%
    10:00 +29°C° 0,1 mm 2 m/s 692 mmHg 57%
    11:00 +30°C° 0,1 mm 2 m/s 691 mmHg 54%
    12:00 +30°C° 0,1 mm 2 m/s 691 mmHg 53%
    13:00 +30°C° 0,1 mm 1 m/s 690 mmHg 51%
    14:00 +31°C° 0,1 mm 1 m/s 689 mmHg 50%
    15:00 +30°C° 0,4 mm 1 m/s 689 mmHg 52%
    16:00 +30°C° 0,4 mm 1 m/s 689 mmHg 55%
    17:00 +29°C° 0,4 mm 1 m/s 689 mmHg 58%
    18:00 +28°C° 0,3 mm 1 m/s 690 mmHg 62%
    19:00 +27°C° 0,3 mm 1 m/s 690 mmHg 66%
    20:00 +24°C° 0,3 mm 0 m/s 690 mmHg 70%
    21:00 +25°C° 0 mm 1 m/s 690 mmHg 71%
    22:00 +25°C° 0 mm 1 m/s 690 mmHg 73%
    23:00 +25°C° 0 mm 1 m/s 690 mmHg 74%

    26 Setembro, Terça-feira

    Tempo Temperatura Precipitação Vento Pressão Humidade
    00:00 +24°C° 0 mm 1 m/s 690 mmHg 74%
    01:00 +24°C° 0 mm 1 m/s 689 mmHg 74%
    02:00 +24°C° 0 mm 1 m/s 689 mmHg 74%
    03:00 +24°C° 0 mm 1 m/s 689 mmHg 75%
    04:00 +24°C° 0 mm 1 m/s 689 mmHg 75%
    05:00 +24°C° 0 mm 1 m/s 690 mmHg 76%
    06:00 +25°C° 0 mm 1 m/s 690 mmHg 70%
    07:00 +27°C° 0 mm 1 m/s 691 mmHg 64%
    08:00 +28°C° 0 mm 1 m/s 692 mmHg 58%
    09:00 +29°C° 0 mm 1 m/s 692 mmHg 53%
    10:00 +31°C° 0 mm 1 m/s 692 mmHg 48%
    11:00 +32°C° 0 mm 2 m/s 692 mmHg 43%
    12:00 +32°C° 0 mm 2 m/s 691 mmHg 44%
    13:00 +32°C° 0 mm 2 m/s 690 mmHg 44%
    14:00 +31°C° 0 mm 2 m/s 689 mmHg 45%
    15:00 +31°C° 0,1 mm 1 m/s 689 mmHg 47%
    16:00 +30°C° 0,1 mm 1 m/s 689 mmHg 50%
    17:00 +30°C° 0,1 mm 1 m/s 689 mmHg 52%
    18:00 +28°C° 0,1 mm 1 m/s 689 mmHg 56%
    19:00 +27°C° 0,1 mm 1 m/s 690 mmHg 60%
    20:00 +26°C° 0,1 mm 1 m/s 690 mmHg 63%
    21:00 +26°C° 0,1 mm 1 m/s 690 mmHg 65%
    22:00 +26°C° 0,1 mm 1 m/s 690 mmHg 66%
    23:00 +25°C° 0,1 mm 1 m/s 691 mmHg 68%
    Mostrar mais